LA1HSA-13 Weather Reports


Display with metric or nautical units.
time (UTC)temp
F
wind
direction
speed
MPH
gust
MPH
rain 1hr
in
rain 24hr
in
rain mn
in
humidity
%
barometer
mb
20260503211003 47 236 2.0 8.0 0.00 0.00 0.00 92 1006.9
20260503210003 47 241 2.0 7.0 0.00 0.00 0.00 91 1007.2
20260503205003 47 233 2.0 11.0 0.00 0.00 0.00 91 1007.3
20260503204003 47 241 2.0 8.0 0.00 0.00 0.00 90 1007.4
20260503203003 48 244 3.0 9.0 0.00 0.00 0.00 89 1007.4
20260503202003 48 240 2.0 11.0 0.00 0.00 0.00 88 1007.5
20260503201003 48 236 4.0 8.0 0.00 0.00 0.00 87 1007.5
20260503200004 48 248 3.0 9.0 0.00 0.00 0.00 87 1007.4
20260503195003 49 239 2.0 8.0 0.00 0.00 0.00 86 1007.6
20260503194003 49 250 3.0 11.0 0.00 0.00 0.00 85 1007.6
20260503193003 49 239 4.0 9.0 0.00 0.00 0.00 83 1007.4
20260503192003 50 240 2.0 8.0 0.00 0.00 0.00 83 1007.5
20260503191003 50 238 2.0 8.0 0.00 0.00 0.00 82 1007.7
20260503190003 50 251 3.0 9.0 0.00 0.00 0.00 81 1007.5
20260503185004 50 220 1.0 4.0 0.00 0.00 0.00 80 1007.2
20260503184003 50 239 2.0 7.0 0.00 0.00 0.00 79 1007.3
20260503183003 50 249 2.0 4.0 0.00 0.00 0.00 77 1007.4
20260503182003 50 239 2.0 4.0 0.00 0.00 0.00 77 1007.4
20260503181003 50 247 1.0 4.0 0.00 0.00 0.00 77 1007.4
20260503180004 50 243 2.0 7.0 0.00 0.00 0.00 75 1007.4
20260503175003 51 238 2.0 11.0 0.00 0.00 0.00 74 1007.5
20260503174003 52 230 2.0 9.0 0.00 0.00 0.00 72 1007.2
20260503173003 52 244 3.0 9.0 0.00 0.00 0.00 71 1007.1
20260503172003 53 230 3.0 8.0 0.00 0.00 0.00 69 1007.5
20260503171003 53 239 2.0 9.0 0.00 0.00 0.00 67 1007.6
20260503151003 54 248 4.0 8.0 0.00 0.00 0.00 64 1008.6
20260503131003 50 236 2.0 6.0 0.00 0.00 0.00 69 1010.4
20260503081003 44 80 2.0 9.0 0.00 0.00 0.00 72 1011.6
20260503072003 43 67 4.0 8.0 0.00 0.00 0.00 71 1011.4
20260503071003 43 64 4.0 9.0 0.00 0.00 0.00 71 1011.3
20260503055003 42 83 2.0 9.0 0.00 0.00 0.00 73 1010.7
20260503054003 42 75 5.0 11.0 0.00 0.00 0.00 73 1010.7
20260503053003 43 56 4.0 9.0 0.00 0.00 0.00 73 1010.5
20260503052003 43 84 5.0 11.0 0.00 0.00 0.00 73 1010.7
20260503051003 42 74 4.0 8.0 0.00 0.00 0.00 73 1010.6
20260503050003 43 61 4.0 9.0 0.00 0.00 0.00 73 1010.5
20260503045003 43 72 4.0 9.0 0.00 0.00 0.00 73 1010.7
20260503044003 43 74 3.0 11.0 0.00 0.00 0.00 73 1010.5
20260503043003 43 51 4.0 9.0 0.00 0.00 0.00 73 1010.4
20260503042003 43 60 3.0 8.0 0.00 0.00 0.00 74 1010.4
20260503041004 43 61 4.0 11.0 0.00 0.00 0.00 73 1010.5
20260503040003 43 78 4.0 11.0 0.00 0.00 0.00 74 1010.4
20260503035003 43 74 5.0 11.0 0.00 0.00 0.00 74 1010.4
20260503034003 43 73 4.0 11.0 0.00 0.00 0.00 74 1010.3
20260503033003 43 70 5.0 11.0 0.00 0.00 0.00 75 1010.0
20260503032003 43 77 4.0 11.0 0.00 0.00 0.00 75 1010.1
20260503031003 43 72 5.0 11.0 0.00 0.00 0.00 75 1010.0
20260503030003 43 70 5.0 11.0 0.00 0.00 0.00 76 1010.0
20260503025003 43 65 4.0 9.0 0.00 0.00 0.00 76 1009.8
20260503024003 43 69 6.0 13.0 0.00 0.00 0.00 76 1009.9
20260503023003 43 78 4.0 14.0 0.00 0.00 0.00 77 1009.8
20260503022003 43 69 4.0 13.0 0.00 0.00 0.00 78 1009.8
20260503021003 43 84 5.0 13.0 0.00 0.00 0.00 79 1009.6
20260503020004 44 65 4.0 13.0 0.00 0.00 0.00 79 1009.7
20260503015003 44 77 4.0 13.0 0.00 0.00 0.00 80 1009.6
20260503014003 44 68 5.0 11.0 0.00 0.00 0.00 81 1009.7
20260503012003 44 69 3.0 11.0 0.00 0.00 0.00 83 1009.6
20260503011004 44 73 3.0 9.0 0.00 0.00 0.00 85 1009.2
20260503010003 44 71 4.0 8.0 0.00 0.00 0.00 88 1009.5
20260503005003 44 75 3.0 9.0 0.00 0.00 0.00 90 1009.8
20260503004003 44 80 4.0 7.0 0.00 0.00 0.00 93 1009.6
20260503003003 45 83 2.0 7.0 0.00 0.00 0.00 95 1009.3
20260503002003 44 75 2.0 7.0 0.00 0.00 0.00 97 1009.2
20260503001003 43 0 0.0 2.0 0.00 0.00 0.00 99 1009.0
20260503000003 43 0 0.0 2.0 0.00 0.00 0.00 99 1009.2
20260502235003 41 0 0.0 0.0 0.00 0.00 0.00 98 1009.0
20260502234003 42 0 0.0 0.0 0.00 0.00 0.00 98 1009.2
20260502233003 43 0 0.0 0.0 0.00 0.00 0.00 97 1009.1
20260502232003 43 0 0.0 0.0 0.00 0.00 0.00 97 1009.1
20260502231003 44 0 0.0 0.0 0.00 0.00 0.00 97 1009.2
20260502230004 44 0 0.0 0.0 0.00 0.00 0.00 97 1009.1
20260502225003 44 0 0.0 0.0 0.00 0.00 0.00 97 1008.8
20260502224003 44 0 0.0 0.0 0.00 0.00 0.00 97 1009.3
20260502223004 45 0 0.0 0.0 0.00 0.00 0.00 97 1008.9
20260502222003 46 0 0.0 0.0 0.00 0.00 0.00 97 1008.8
20260502221003 46 0 0.0 0.0 0.00 0.00 0.00 98 1008.8
20260502220022 46 0 0.0 0.0 0.00 0.00 0.00 97 1008.8
20260502214003 47 0 0.0 0.0 0.00 0.00 0.00 96 1008.9
20260502213003 48 0 0.0 0.0 0.00 0.00 0.00 96 1009.0
20260502212004 48 0 0.0 0.0 0.00 0.00 0.00 96 1009.2